Вернуться в каталог

TEVEL2-3

АктивенЛюбительское радиоSSO
NORAD 63218·PAYLOAD·🇮🇱 Israel

Запущен Mar 15, 2025 с Vandenberg Space Force Base

Loading…

Ближайшие Пролёты (ближайшие 24 часа)

TLE

СвежийSource: AMSAT

Эпоха: Sep 14, 2026, 03:17 UTC

1 63218U 25052J   26257.13691659  .00014256  00000-0  39975-3 0  9990
2 63218  97.3740 153.2516 0003583 130.0894 230.0664 15.36689120 83743

Отслеживайте TEVEL2-3 в реальном времени с AllMySat

Download on the App Store